#timestamp,LO_Frequency,Hit,StdDev 
1538686815.8,286047000.3,N
1538686835.6,286046998.2,N
1538686855.4,286047000.8,N
1538686875.3,286047002.2,N
1538686895.1,286047002.0,N
1538686915.9,286047002.8,N
1538686935.7,286047004.0,N
1538686955.5,286047003.0,N
1538686975.4,286047003.8,N
1538686995.2,286047002.9,N
1538687015.0,286047005.1,N
1538687016.0,286047005.1,N
1538687035.8,286047004.6,N
1538687055.6,286047006.9,Y
1538687075.5,286047002.9,P
1538687095.3,286047007.6,P
1538687115.1,286047007.6,P
1538687135.9,286047006.6,N
1538687155.7,286047008.5,Y
1538687175.6,286047005.6,P
1538687195.4,286047005.5,P
1538687215.2,286047006.2,P
1538687235.1,286047007.9,Y
1538687236.0,286047007.9,P
1538687255.8,286047003.8,P
1538687275.7,286047004.7,N
1538687295.5,286047003.3,N
1538687315.3,286047005.8,Y
1538687335.2,286047000.5,P
1538687355.0,286046998.4,N
1538687355.9,286046998.4,N
1538687375.7,286047001.0,N
1538687395.6,286047000.7,N
1538687415.4,286046999.8,N
1538687435.3,286047001.6,N
1538687455.1,286047011.9,Y
1538687456.0,286047002.2,P
1538687475.8,286047002.0,N
1538687495.7,286047001.8,N
1538687515.5,286047001.5,N
1538687535.3,286047001.5,N
1538687555.2,286047003.2,Y
1538687575.0,286047001.8,P
1538687575.9,286047001.8,P
1538687595.8,286047002.7,P
1538687615.6,286047002.2,Y
1538687635.4,286047000.8,P
1538687655.3,286047000.1,N
1538687675.1,286047002.6,P
1538687695.8,286047000.3,N
1538687715.7,286047002.3,N
1538687735.5,286047001.3,N
1538687755.4,286047004.3,Y
1538687775.2,286047002.2,P
1538687795.0,286047001.6,P
1538687795.9,286047001.6,P
1538687815.8,286047005.8,Y
1538687835.6,286047003.7,P
1538687855.4,286047003.6,P
1538687875.3,286047003.3,P
1538687895.1,286047004.1,Y
1538687915.9,286046998.1,P
1538687935.7,286047000.9,N
1538687955.5,286047000.5,N
1538687975.4,286046998.6,N
1538687995.2,286047001.1,N
1538688015.0,286046998.6,N
1538688016.0,286046998.6,N
1538688035.8,286046999.5,N
1538688055.6,286046998.6,N
1538688075.5,286046999.9,N
1538688095.3,286047002.3,N
1538688115.1,286047003.2,N
1538688135.9,286047005.6,Y
1538688155.7,286047007.5,P
1538688175.6,286047007.4,N
1538688195.4,286047006.9,N
1538688215.2,286047009.1,N
1538688235.1,286047008.7,N
1538688236.0,286047008.7,N
1538688255.8,286047007.9,N
1538688275.6,286047007.7,N
1538688295.5,286047009.8,Y
1538688315.3,286047004.2,P
1538688335.2,286047001.5,N
1538688355.9,286047001.8,N
1538688375.7,286047003.2,N
1538688395.6,286047005.7,N
1538688415.4,286047005.6,N
1538688435.2,286047005.0,N
1538688455.1,286047007.2,Y
1538688456.0,286047007.2,P
1538688475.8,286047004.3,N
1538688495.7,286047004.1,N
1538688515.5,286047003.7,N
1538688535.3,286047002.9,N
1538688555.2,286047003.4,N
1538688575.0,286047005.8,Y
1538688575.9,286047005.8,P
1538688595.7,286047000.0,N
1538688615.6,286047001.7,N
1538688635.4,286047003.1,N
1538688655.3,286047003.2,N
1538688675.1,286047007.6,Y
1538688676.0,286047007.6,P
1538688695.8,286047003.7,N
1538688715.7,286047003.7,N
1538688735.5,286047003.2,N
1538688755.3,286047004.9,N
1538688775.2,286047006.3,Y
1538688795.0,286047002.4,P
1538688795.9,286047002.4,N
1538688815.8,286047001.4,N
1538688835.6,286047001.3,N
1538688855.4,286047004.3,Y
1538688875.3,286047002.1,P
1538688895.1,286047002.3,P
1538688915.9,286047001.3,P
1538688935.7,286047003.7,Y
1538688955.5,286047002.5,P
1538688975.4,286047002.5,P
1538688995.2,286047004.4,P
1538689015.0,286047001.6,N
1538689015.9,286047001.6,N
1538689035.8,286047001.4,N
1538689055.6,286047003.0,Y
1538689075.5,286047003.9,P
1538689095.3,286047004.3,P
1538689115.1,286047003.5,P
1538689135.9,286047003.1,Y
1538689155.7,286047001.8,P
1538689175.5,286047003.5,P
1538689195.4,286047003.9,P
1538689215.2,286047003.6,Y
1538689235.1,286047002.4,P
1538689236.0,286047002.4,P
1538689255.8,286047002.0,P
1538689275.6,286047003.9,Y
1538689295.5,286047002.3,P
1538689315.3,286047001.4,P
1538689335.1,286047003.9,P
1538689355.9,286047001.3,N
1538689375.7,286047004.3,Y
1538689395.6,286047002.4,P
1538689415.4,286047001.9,P
1538689435.2,286047001.6,P
1538689455.1,286047002.0,Y
1538689456.0,286047002.0,P
1538689475.8,286047000.5,P
1538689495.7,286047002.1,N
1538689515.5,286047002.7,Y
1538689535.3,286047000.4,P
1538689555.2,286046998.7,N
1538689575.0,286047000.8,N
1538689575.9,286047000.8,N
1538689595.8,286047000.2,N
1538689615.6,286047002.8,Y
1538689635.4,286047002.3,P
1538689655.3,286047002.2,N
1538689675.1,286047004.2,P
1538689695.8,286047003.0,N
1538689715.7,286047005.9,Y
1538689735.5,286047002.5,P
1538689755.4,286047001.6,P
1538689775.2,286047001.5,P
1538689795.0,286047003.4,Y
1538689795.9,286047003.4,P
1538689815.8,286047003.6,P
1538689835.6,286047004.1,P
1538689855.5,286047003.2,Y
1538689875.3,286047000.0,P
1538689895.1,286047001.7,N
1538689915.9,286047003.6,N
1538689935.7,286047003.9,N
1538689955.5,286047003.8,N
1538689975.4,286047004.3,Y
1538689995.2,286047000.5,P
1538690015.1,286046999.9,N
1538690016.0,286046999.9,N
1538690035.8,286047000.6,N
1538690055.6,286047001.0,N
1538690075.5,286046999.7,N
1538690095.3,286047000.1,N
1538690115.1,286047000.6,N
1538690135.9,286046999.7,N
1538690155.7,286047002.0,N
1538690175.6,286047002.5,N
1538690195.4,286047002.4,N
1538690215.2,286047002.5,N
1538690235.1,286047000.1,N
1538690236.0,286047000.1,N
1538690255.8,286047001.5,N
1538690275.6,286047001.8,N
1538690295.5,286047004.2,Y
1538690315.3,286047002.7,P
1538690335.2,286047001.8,N
1538690355.9,286047004.2,P
1538690375.7,286047005.9,Y
1538690395.6,286047001.8,P
